[TLELIST] Archives

 

[TLELIST] Current TLEs

November 3rd 2024 PDT

HST 1 20580U 90037B 24307.81405928 .00016666 00000-0 72615-3 0 9996 2 20580 28.4656 134.5111 0002834 100.3497 259.7415 15.20755424698130 ISS (ZARYA) 1 25544U 98067A 24308.37136889 .00029456 00000-0 50229-3 0 9999 2 25544 51.6408 345.9219 0008834 130.6033 342.2800 15.51062647480130 CXO 1 25867U 99040B 24310.65906912 .00000923 00000-0 00000+0 0 9991 2 25867 44.3059 142.6326 8736331 303.5992 0.1784 0.37808045 26251 ...Continue Reading

[TLELIST] Current TLEs

November 2nd 2024 PDT

HST 1 20580U 90037B 24306.82966797 .00017229 00000-0 75161-3 0 9997 2 20580 28.4662 141.1368 0002843 90.2894 269.8025 15.20723624697981 ISS (ZARYA) 1 25544U 98067A 24307.46550300 .00101508 00000-0 16982-2 0 9992 2 25544 51.6416 350.4128 0008787 129.8604 321.5738 15.51032387479990 CXO 1 25867U 99040B 24308.01625054 .00000866 00000-0 00000+0 0 9999 2 25867 44.2586 142.7834 8739501 303.5226 0.3303 0.37811088 26241 ...Continue Reading

[TLELIST] Current TLEs

November 2nd 2024 PDT

HST 1 20580U 90037B 24306.82966797 .00017229 00000-0 75161-3 0 9997 2 20580 28.4662 141.1368 0002843 90.2894 269.8025 15.20723624697981 ISS (ZARYA) 1 25544U 98067A 24307.46550300 .00101508 00000-0 16982-2 0 9992 2 25544 51.6416 350.4128 0008787 129.8604 321.5738 15.51032387479990 CXO 1 25867U 99040B 24308.01625054 .00000866 00000-0 00000+0 0 9999 2 25867 44.2586 142.7834 8739501 303.5226 0.3303 0.37811088 26241 ...Continue Reading

[TLELIST] Current TLEs

November 1st 2024 PDT

HST 1 20580U 90037B 24305.84525567 .00016023 00000-0 69924-3 0 9995 2 20580 28.4663 147.7627 0002870 81.9401 278.1518 15.20687371697835 ISS (ZARYA) 1 25544U 98067A 24306.43669813 .00169597 00000-0 28130-2 0 9998 2 25544 51.6392 355.5240 0009218 125.7998 337.4825 15.50977841479833 CXO 1 25867U 99040B 24308.01625054 .00000866 00000-0 00000+0 0 9999 2 25867 44.2586 142.7834 8739501 303.5226 0.3303 0.37811088 26241 ...Continue Reading

[TLELIST] Current TLEs

October 31st 2024 PDT

HST 1 20580U 90037B 24304.92645000 .00016257 00000-0 71018-3 0 9994 2 20580 28.4666 153.9468 0002916 73.7569 286.3345 15.20657926697950 ISS (ZARYA) 1 25544U 98067A 24305.40294895 .00184572 00000-0 30628-2 0 9993 2 25544 51.6398 0.6488 0009166 122.4391 325.3280 15.50905185479679 CXO 1 25867U 99040B 24305.37135332 .00000826 00000-0 00000-0 0 9997 2 25867 44.2271 142.9150 8743739 303.4581 0.2168 0.37813973 15078 ...Continue Reading

[TLELIST] Current TLEs

October 30th 2024 PDT

HST 1 20580U 90037B 24303.94199537 .00015308 00000-0 66890-3 0 9992 2 20580 28.4664 160.5729 0002884 63.9394 296.1496 15.20625935697549 ISS (ZARYA) 1 25544U 98067A 24304.37004447 .00040287 00000-0 68959-3 0 9993 2 25544 51.6397 5.7722 0008755 116.7035 320.5198 15.50799826479510 CXO 1 25867U 99040B 24305.37135332 .00000826 00000-0 00000-0 0 9997 2 25867 44.2271 142.9150 8743739 303.4581 0.2168 0.37813973 15078 ...Continue Reading

[TLELIST] Current TLEs

October 29th 2024 PDT

HST 1 20580U 90037B 24302.30119302 .00016298 00000-0 71367-3 0 9997 2 20580 28.4667 171.6148 0002879 48.6465 311.4376 15.20577057697294 ISS (ZARYA) 1 25544U 98067A 24303.40526963 .00046268 00000-0 79212-3 0 9997 2 25544 51.6406 10.5581 0009124 114.5833 332.9952 15.50728255479367 CXO 1 25867U 99040B 24305.37135332 .00000826 00000-0 00000-0 0 9997 2 25867 44.2271 142.9150 8743739 303.4581 0.2168 0.37813973 15078 ...Continue Reading

[TLELIST] [TLELIST] Current TLEs

October 29th 2024 PDT

HST 1 20580U 90037B 24302.30119302 .00016298 00000-0 71367-3 0 9997 2 20580 28.4667 171.6148 0002879 48.6465 311.4376 15.20577057697294 ISS (ZARYA) 1 25544U 98067A 24303.40526963 .00046268 00000-0 79212-3 0 9997 2 25544 51.6406 10.5581 0009124 114.5833 332.9952 15.50728255479367 CXO 1 25867U 99040B 24305.37135332 .00000826 00000-0 00000-0 0 9997 2 25867 44.2271 142.9150 8743739 303.4581 0.2168 0.37813973 15078 ...Continue Reading

[TLELIST] Current TLEs

October 29th 2024 PDT

HST 1 20580U 90037B 24302.30119302 .00016298 00000-0 71367-3 0 9997 2 20580 28.4667 171.6148 0002879 48.6465 311.4376 15.20577057697294 ISS (ZARYA) 1 25544U 98067A 24303.40526963 .00046268 00000-0 79212-3 0 9997 2 25544 51.6406 10.5581 0009124 114.5833 332.9952 15.50728255479367 CXO 1 25867U 99040B 24305.37135332 .00000826 00000-0 00000-0 0 9997 2 25867 44.2271 142.9150 8743739 303.4581 0.2168 0.37813973 15078 ...Continue Reading

[TLELIST] Current TLEs

October 28th 2024 PDT

HST 1 20580U 90037B 24301.97302606 .00017913 00000-0 78531-3 0 9995 2 20580 28.4670 173.8239 0002925 45.0096 315.0734 15.20567821697247 ISS (ZARYA) 1 25544U 98067A 24302.37512067 .00046685 00000-0 80180-3 0 9991 2 25544 51.6401 15.6687 0009341 112.1320 340.8898 15.50632685479202 CXO 1 25867U 99040B 24302.72651146 .00000817 00000-0 00000-0 0 9999 2 25867 44.1830 143.0661 8749087 303.3751 0.1470 0.37813506 15063 ...Continue Reading
  • This mailing list is a public mailing list - anyone may join or leave, at any time.
  • This mailing list is announce-only.

International Space Station (ISS) / Hubble Space Telescope (HST) / Chandra X-Ray Observatory Orbital Data via EMAIL

Privacy Policy:

Private list